Weather History for KGUY - June, 2013

Change the Weather History Date:

Thursday, June 13, 2013

  Actual Average Record
Temperature  
Mean Temperature 83 °F 73 °F  
Max Temperature 99 °F 87 °F 106 °F (2011)
Min Temperature 66 °F 60 °F 50 °F (2005)
Degree Days  
Heating Degree Days 0 0  
Month to date heating degree days 0 6  
Since 1 June heating degree days 0 6  
Since 1 July heating degree days 4311 4455  
Cooling Degree Days 18 9  
Month to date cooling degree days 155 93  
Year to date cooling degree days 359 201  
Since 1 June cooling degree days 155 93  
Growing Degree Days 32 (Base 50)    
Moisture  
Dew Point 56 °F    
Average Humidity 47    
Maximum Humidity 73    
Minimum Humidity 20    
Precipitation  
Precipitation 0.00 in 0.10 in 2.50 in (2003)
Month to date precipitation 0.82 1.54  
Year to date precipitation 3.17 7.79  
Snow  
Snow 0.00 in - - ()
Month to date snowfall T  
Since 1 June snowfall T  
Since 1 July snowfall 22.3  
Snow Depth 0.00 in    
Sea Level Pressure  
Sea Level Pressure 29.84 in    
Wind  
Wind Speed 13 mph (South)    
Max Wind Speed 23 mph    
Max Gust Speed 32 mph    
Visibility 10 miles    
Events      
T = Trace of Precipitation, MM = Missing Value Source: NWS Daily Summary

Daily Weather History Graph

Daily Weather History Graph

Search for Another Location

Airport or City:

Trip Planner

Search our weather history database for the weather conditions in past years. The results will help you decide how hot, cold, wet, or windy it might be!

Date:

Astronomy

Jun. 13, 2013 Rise Set
Actual Time 6:26 AM CDT 9:05 PM CDT
Civil Twilight 5:56 AM CDT 9:36 PM CDT
Nautical Twilight 5:18 AM CDT 10:14 PM CDT
Astronomical Twilight 4:35 AM CDT 10:57 PM CDT
Moon 10:59 AM CDT (6/13) No Moon Set
Length of Visible Light 15h 40m
Length of Day
14h 39m
Waxing Crescent, 22% of the Moon is Illuminated
Jun 13
Waxing Crescent
Jun 16
First Quarter
Jun 23
Full
Jun 29
Last Quarter
Jul 8
New

Hourly Weather History & Observations

Time (CDT) Temp. Heat Index Dew Point Humidity Pressure Visibility Wind Dir Wind Speed Gust Speed Precip Events Conditions
12:53 AM 80.1 °F 80.2 °F 55.9 °F 43% 29.85 in 10.0 mi South 10.4 mph - N/A   Clear
1:53 AM 78.1 °F - 57.9 °F 50% 29.86 in 10.0 mi South 9.2 mph - N/A   Clear
2:53 AM 75.9 °F - 59.0 °F 56% 29.86 in 10.0 mi South 9.2 mph - N/A   Clear
3:53 AM 73.9 °F - 59.0 °F 59% 29.86 in 10.0 mi South 8.1 mph - N/A   Clear
4:53 AM 70.0 °F - 57.9 °F 65% 29.87 in 10.0 mi South 5.8 mph - N/A   Clear
5:53 AM 68.0 °F - 57.0 °F 68% 29.88 in 10.0 mi Calm Calm - N/A   Clear
6:53 AM 66.9 °F - 57.9 °F 73% 29.90 in 10.0 mi SSE 6.9 mph - N/A   Clear
7:53 AM 73.0 °F - 60.1 °F 64% 29.91 in 10.0 mi East 5.8 mph - N/A   Clear
8:53 AM 77.0 °F - 62.1 °F 60% 29.92 in 10.0 mi East 6.9 mph - N/A   Clear
9:53 AM 82.0 °F 82.7 °F 61.0 °F 49% 29.92 in 10.0 mi SE 10.4 mph - N/A   Clear
10:53 AM 89.1 °F 89.0 °F 61.0 °F 39% 29.89 in 10.0 mi South 5.8 mph - N/A   Clear
11:53 AM 93.9 °F 92.2 °F 55.9 °F 28% 29.88 in 10.0 mi South 16.1 mph - N/A   Clear
12:53 PM 95.0 °F 92.5 °F 53.1 °F 24% 29.87 in 10.0 mi South 18.4 mph 26.5 mph N/A   Clear
1:53 PM 97.0 °F - 51.1 °F 21% 29.85 in 10.0 mi South 21.9 mph 29.9 mph N/A   Clear
2:53 PM 97.0 °F - 52.0 °F 22% 29.83 in 10.0 mi South 18.4 mph 27.6 mph N/A   Clear
3:53 PM 98.1 °F - 51.1 °F 20% 29.81 in 10.0 mi South 19.6 mph 28.8 mph N/A   Clear
4:53 PM 99.0 °F - 51.1 °F 20% 29.78 in 10.0 mi South 20.7 mph 24.2 mph N/A   Clear
5:53 PM 98.1 °F - 50.0 °F 20% 29.78 in 10.0 mi South 18.4 mph 26.5 mph N/A   Clear
6:53 PM 97.0 °F - 51.1 °F 21% 29.77 in 10.0 mi South 17.3 mph 24.2 mph N/A   Clear
7:53 PM 95.0 °F 92.5 °F 53.1 °F 24% 29.77 in 10.0 mi South 12.7 mph 23.0 mph N/A   Clear
8:53 PM 90.0 °F 87.7 °F 54.0 °F 29% 29.78 in 10.0 mi SSE 13.8 mph 20.7 mph N/A   Clear
9:53 PM 87.1 °F - 52.0 °F 30% 29.78 in 10.0 mi SSE 12.7 mph - N/A   Clear
10:53 PM 84.9 °F 83.6 °F 55.0 °F 36% 29.81 in 10.0 mi South 13.8 mph 20.7 mph N/A   Clear
11:53 PM 82.9 °F 82.1 °F 55.9 °F 39% 29.80 in 10.0 mi South 20.7 mph 24.2 mph N/A   Clear